Regional Weather Roundup
Issued by NWS Wilmington, NC

Home | Current Version | Previous Version | Text Only | Print | Product List | Glossary On
Versions: 1 2 3 4 5 6 7 8 9 10 11 12 13 14 15 16 17 18 19 20 21 22 23 24 25 26 27 28 29 30 31 32 33 34 35 36 37 38 39 40 41 42 43 44 45 46 47 48 49 50
000
ASUS42 KILM 260113
RWRILM
RWRILM
REGIONAL HOURLY WEATHER ROUNDUP
NATIONAL WEATHER SERVICE WILMINGTON NC
900 PM EDT SUN JUN 25 2017

NOTE: "FAIR" INDICATES FEW OR NO CLOUDS BELOW 12,000 FEET WITH NO
SIGNIFICANT WEATHER AND/OR OBSTRUCTIONS TO VISIBILITY.

...............WFO WILMINGTON COUNTY WARNING AREA...............

......COASTAL NC AND SC COUNTIES......

CITY           SKY/WX    TMP DP  RH WIND       PRES   REMARKS
WILMINGTON     LGT RAIN  73  70  90 CALM      30.05F
N MYRTLE BEACH CLOUDY    76  75  97 NE5       30.06F
MYRTLE BEACH   NOT AVBL

......INLAND NC AND SC COUNTIES.......

CITY           SKY/WX    TMP DP  RH WIND       PRES   REMARKS
LUMBERTON      CLOUDY    80  70  71 N7        30.06R
ELIZABETHTOWN  NOT AVBL
WHITEVILLE     MOCLDY    74  71  93 SW3       30.06R
FLORENCE       CLOUDY    80  76  87 W6        30.07R
DARLINGTON     PTCLDY    79  69  71 N8        30.07S
KINGSTREE      FAIR      73  72  94 CALM      30.07R
HARTSVILLE       N/A    N/A N/A N/A MISG        N/A
BENNETTSVILLE  FAIR      81  68  65 N7        30.07R
CONWAY         FAIR      73  72  94 CALM      30.07S
GEORGETOWN     FAIR      73  72  94 CALM      30.06F
MARION         MOCLDY    73  70  88 S6        30.07R

....................REST OF NORTH CAROLINA......................

.........EASTERN NC.........

CITY           SKY/WX    TMP DP  RH WIND       PRES   REMARKS
CAPE HATTERAS  CLOUDY    79  75  87 SW7       30.04R
JACKSONVILLE   CLOUDY    78  76  93 CALM      30.06R
MOREHEAD CITY  CLOUDY    77  71  82 SW7       30.05R
KENANSVILLE    CLOUDY    77  73  88 N3        30.07R
NEW BERN       CLOUDY    78  75  90 S3        30.06R
ELIZABETH CITY CLOUDY    76  74  93 SW5       30.03R

.........CENTRAL NC.........

CITY           SKY/WX    TMP DP  RH WIND       PRES   REMARKS
RALEIGH DURHAM CLOUDY    74  67  78 W3        30.09R
ROCKY MOUNT    CLOUDY    78  64  61 W3        30.07R
ROANOKE RAPIDS NOT AVBL
FAYETTEVILLE   CLOUDY    80  68  66 N5        30.07R
HOFFMAN        CLOUDY    77  67  71 N3        30.08S

.........WESTERN NC.........

CITY           SKY/WX    TMP DP  RH WIND       PRES   REMARKS
CHARLOTTE      CLOUDY    72  64  76 NW5       30.13R
GREENSBORO     MOCLDY    72  64  76 W5        30.11R
HICKORY        NOT AVBL
BOONE          NOT AVBL
ASHEVILLE      NOT AVBL

.....................REST OF SOUTH CAROLINA.....................

.........EASTERN SC.........

CITY           SKY/WX    TMP DP  RH WIND       PRES   REMARKS
CHARLESTON     CLOUDY    76  74  93 CALM      30.06S
BEAUFORT MCAS  CLOUDY    76  76 100 S3        30.06F
HILTON HEAD    LGT RAIN  77  77 100 S6        30.09S

.........CENTRAL SC.........

CITY           SKY/WX    TMP DP  RH WIND       PRES   REMARKS
COLUMBIA       CLOUDY    83  67  58 NE6       30.07R
ORANGEBURG     CLOUDY    76  75  97 SW5       30.07S
SUMTER SHAW    LGT RAIN  79  75  89 SW5       30.06R

.........WESTERN SC.........

CITY           SKY/WX    TMP DP  RH WIND       PRES   REMARKS
GREENVILLE     NOT AVBL
ROCK HILL      PTCLDY    74  61  63 CALM      30.13R
ANDERSON       CLOUDY    76  61  59 NE7       30.12R
CLEMSON        NOT AVBL
GREENWOOD      CLOUDY    74  60  61 N6        30.13R


...................COASTAL AND OFFSHORE REPORTS..................

................LOCAL PIERS AND NC RESERVE................


STATION/POSITION TIME  SKY/WX   TEMP    WIND        PRES    VSBY
                                AIR SEA DIR/SP/G
                 (UTC)          (F)     (DEG/KT/KT) (MB)    (MI)
JOHNY MRCER PIER 0048            74 80  290/  5/  7 1016.6F
NC RESRV MASNBRO 2345            73     260/  3     1019.0
OCEAN CREST PIER NOT AVBL
SPRINGMAID  PIER 0042                               1017.3R


................COASTAL AND OFFSHORE BUOYS................


STATION/POSITION TIME  SKY/WX   TEMP    WIND        PRES    VSBY
                                AIR SEA DIR/SP/G
                 (UTC)          (F)     (DEG/KT/KT) (MB)    (MI)
DIMNDSHOAL 41025 0050            79 80  240/ 12/ 14 1017.1R
WVE H/P(F/S)=  3/ 6 SWL H/P/D(F/S/D)=  2/190/ 6

CAPE LOOKOUT     0100            75     230/ 13/ 18 1017.2R
ONSLOW BAY 41036 NOT AVBL
ONSLOW BAY 41064 0008            79 81  250/ 14/ 17 1017.3R
ONSLOW BAY 41159 0043               80                N/A
WVE H/P(F/S)=  4/ 6

MASNBO INL 41110 0059               80                N/A
WVE H/P(F/S)=  3/ 6

WILM HARBR 41108 NOT AVBL
27SE WRITB 41037 0008            79 81  240/ 16/ 21 1017.6R
FRYING PAN 41013 0100            79 81  290/ 10/ 12 1018.0
SUNST NRSH 41024 0008            77 80  330/  4/  8 1017.6R
CAPRS NRSH 41029 0008            82 83  100/  2/  6 1017.7S
EDISTO     41004 0100            79 81   50/  2/  2 1017.5


..........OFFSHORE BUOYS BEYOND 100 NM OFFSHORE...........
.....IN A TRIANGLE---HAT TO BERMUDA TO BAHAMAS TO HAT.....


STATION/POSITION TIME  SKY/WX   TEMP    WIND        PRES    VSBY
                                AIR SEA DIR/SP/G
                 (UTC)          (F)     (DEG/KT/KT) (MB)    (MI)
150E HAT   41001 0100            79 79  230/ 10/ 14 1018.4
W BERMUDA  41048 0100            81 81  230/  8/  8 1022.0
ATLANTIC S 41049 0050            81 83  100/  4/  6 1023.8R
WVE H/P(F/S)=  3/ 7 SWL H/P/D(F/S/D)=  3/110/ 7

E BAHAMAS  41046 0100            82 83  100/ 12/ 14 1021.0
NE BAHAMAS 41047 0050            82 83  120/  6/ 10 1021.6R
WVE H/P(F/S)=  3/ 6 SWL H/P/D(F/S/D)=  3/130/ 6

120E CANVRL41010 0100            83 84  160/  6/  8 1019.5

END



USA.gov is the U.S. government's official web portal to all federal, state and local government web resources and services.